Home   Weather   Modesto   Past weeks

Flag for USA Past Weather in Modesto, California, USA — Yesterday and Last 2 Weeks

Now
48 °F

Partly cloudy.


Feels Like: 45 °F
Forecast: 45 / 54 °F
Wind: 7 mph from Southeast

Location: Modesto City-County-Sham Field

Current Time: Jan 20, 2017 at 6:35:00 pm

Latest Report: Jan 20, 2017 at 5:53 pm


Visibility: 10 mi

Pressure: 29.39 "Hg

Humidity: 89%

Dew Point: 45 °F

Location of ModestoLocation

Past Weather in Modesto — Graph

°F

Modesto Temperature Yesterday

Maximum temperature yesterday: 59 °F (at 12:53 pm)
Minimum temperature yesterday: 47 °F (at 3:53 am)
Average temperature yesterday: 52 °F

High & Low Weather Summary for the Past Weeks

 TemperatureHumidityPressure
High68 °F (Jan 8, 10:53 am)96% (Jan 20, 9:27 am)30.26 "Hg (Jan 20, 9:27 am)
Low33 °F (Jan 6, 4:53 am)46% (Jan 6, 12:53 pm)29.33 "Hg (Jan 20, 1:53 pm)
Average49 °F79%30.01 "Hg
* Reported Jan 5 4:53 pm — Jan 20 4:53 pm, Modesto, Weather by CustomWeather, © 2017

Note: Actual official high and low records may vary slightly from our data, if they occured in-between our weather recording intervals... More about our weather records

Advertising

Modesto Weather History for the Previous 24 Hours

Scroll right to see more
 ConditionsComfort  
Time TempWeatherWind HumidityBarometerVisibility
4:53 pm
Fri, Jan 20
50 °FBroken clouds.5 mph80%29.36 "Hg10 mi
3:53 pm52 °FLight rain. Cloudy.No wind75%29.34 "Hg10 mi
3:05 pm49 °FLight rain. Partly sunny.13 mph80%29.34 "Hg7 mi
1:53 pm56 °FLight rain. Cloudy.6 mph65%29.33 "Hg10 mi
1:00 pm55 °FPartly sunny.3 mph67%29.34 "Hg10 mi
12:53 pm55 °FBroken clouds.6 mph67%29.34 "Hg10 mi
11:53 am53 °FBroken clouds.8 mph77%29.37 "Hg10 mi
10:53 am52 °FBroken clouds.10 mph89%29.38 "Hg10 mi
10:15 am50 °FBroken clouds.15 mph93%29.38 "Hg10 mi
9:53 am49 °FMostly cloudy.10 mph93%29.38 "Hg10 mi
9:27 am48 °FLight rain. Overcast.13 mph96%29.38 "Hg10 mi
8:53 am47 °FLight rain. Fog.13 mph93%29.39 "Hg6 mi
7:53 am47 °FLight rain. Overcast.18 mph93%29.39 "Hg8 mi
6:53 am49 °FHeavy rain. Fog.20 mph90%29.42 "Hg5 mi
6:21 am49 °FLight rain. Mostly cloudy.18 mph84%29.41 "Hg10 mi
5:53 am49 °FLight rain. Mostly cloudy.24 mph84%29.39 "Hg10 mi
5:19 am49 °FLight rain. Mostly cloudy.22 mph86%29.40 "Hg10 mi
4:53 am49 °FLight rain. Overcast.25 mph86%29.41 "Hg10 mi
3:53 am49 °FLight rain. Overcast.17 mph86%29.50 "Hg10 mi
2:53 am50 °FLight rain. Overcast.14 mph83%29.57 "Hg10 mi
1:53 am50 °FLight rain. Overcast.13 mph83%29.63 "Hg10 mi
12:53 am50 °FMostly cloudy.9 mph83%29.66 "Hg10 mi
11:53 pm
Thu, Jan 19
50 °FLight rain. Mostly cloudy.7 mph83%29.72 "Hg10 mi
10:53 pm51 °FLight rain. Mostly cloudy.7 mph80%29.77 "Hg10 mi
9:53 pm53 °FOvercast.7 mph69%29.79 "Hg10 mi
8:53 pm52 °FOvercast.10 mph75%29.78 "Hg10 mi
7:53 pm52 °FPassing clouds.7 mph75%29.80 "Hg10 mi
6:53 pm53 °FPassing clouds.7 mph72%29.82 "Hg10 mi
Weather by CustomWeather, © 2017

See weather overviewHow to use our weather pages